Weather History for KHIE - March, 2013

Change the Weather History Date:

Sunday, March 31, 2013

  Actual Average Record
Temperature  
Mean Temperature 36 °F -  
Max Temperature 53 °F 40 °F 82 °F (1998)
Min Temperature 18 °F 21 °F 10 °F (2003)
Degree Days  
Heating Degree Days 30    
Moisture  
Dew Point 20 °F    
Average Humidity 53    
Maximum Humidity 85    
Minimum Humidity 26    
Precipitation  
Precipitation 0.00 in - - ()
Sea Level Pressure  
Sea Level Pressure 29.98 in    
Wind  
Wind Speed 3 mph (South)    
Max Wind Speed 14 mph    
Max Gust Speed 22 mph    
Visibility 10 miles    
Events      
Averages and records for this station are not official NWS values.
T = Trace of Precipitation, MM = Missing Value Source: NWS Daily Summary

Daily Weather History Graph

Daily Weather History Graph

Search for Another Location

Airport or City:

Trip Planner

Search our weather history database for the weather conditions in past years. The results will help you decide how hot, cold, wet, or windy it might be!

Date:

Astronomy

Mar. 31, 2013 Rise Set
Actual Time 6:28 AM EDT 7:12 PM EDT
Civil Twilight 5:59 AM EDT 7:41 PM EDT
Nautical Twilight 5:24 AM EDT 8:16 PM EDT
Astronomical Twilight 4:48 AM EDT 8:53 PM EDT
Moon No Moon Rise 9:03 AM EDT (3/31)
Length of Visible Light 13h 42m
Length of Day
12h 43m
Waning Gibbous, 78% of the Moon is Illuminated
Mar 31
Waning Gibbous
Apr 3
Last Quarter
Apr 10
New
Apr 18
First Quarter
Apr 25
Full

Hourly Weather History & Observations

Time (EDT) Temp. Windchill Dew Point Humidity Pressure Visibility Wind Dir Wind Speed Gust Speed Precip Events Conditions
12:52 AM 23.0 °F - 18.0 °F 81% 30.11 in 10.0 mi Calm Calm - N/A   Clear
1:52 AM 21.9 °F - 18.0 °F 85% 30.11 in 10.0 mi Calm Calm - N/A   Clear
2:52 AM 21.0 °F - 16.0 °F 81% 30.12 in 10.0 mi Calm Calm - N/A   Clear
3:52 AM 19.9 °F - 15.1 °F 81% 30.11 in 10.0 mi Calm Calm - N/A   Clear
4:52 AM 19.0 °F - 15.1 °F 85% 30.11 in 10.0 mi Calm Calm - N/A   Clear
5:52 AM 19.0 °F - 14.0 °F 81% 30.11 in 10.0 mi Calm Calm - N/A   Clear
6:52 AM 18.0 °F - 14.0 °F 84% 30.10 in 10.0 mi Calm Calm - N/A   Clear
7:52 AM 24.1 °F - 19.0 °F 81% 30.10 in 10.0 mi Calm Calm - N/A   Clear
8:52 AM 30.9 °F - 21.9 °F 69% 30.08 in 10.0 mi Calm Calm - N/A   Clear
9:52 AM 39.9 °F - 23.0 °F 51% 30.06 in 10.0 mi Calm Calm - N/A   Clear
10:52 AM 48.0 °F - 19.0 °F 32% 30.04 in 10.0 mi Calm Calm - N/A   Clear
11:52 AM 50.0 °F - 18.0 °F 28% 30.02 in 10.0 mi South 10.4 mph 18.4 mph N/A   Clear
12:52 PM 51.1 °F - 18.0 °F 27% 29.99 in 10.0 mi SSW 9.2 mph - N/A   Clear
1:52 PM 51.1 °F - 17.1 °F 26% 29.96 in 10.0 mi SW 9.2 mph 17.3 mph N/A   Clear
2:52 PM 52.0 °F - 19.9 °F 28% 29.94 in 10.0 mi South 11.5 mph 17.3 mph N/A   Clear
3:52 PM 53.1 °F - 19.0 °F 26% 29.91 in 10.0 mi South 10.4 mph 21.9 mph N/A   Clear
4:52 PM 52.0 °F - 19.0 °F 27% 29.89 in 10.0 mi South 8.1 mph - N/A   Mostly Cloudy
5:52 PM 52.0 °F - 19.0 °F 27% 29.88 in 10.0 mi South 13.8 mph 18.4 mph N/A   Clear
6:52 PM 50.0 °F - 19.0 °F 29% 29.86 in 10.0 mi South 5.8 mph - N/A   Mostly Cloudy
7:52 PM 48.0 °F - 24.1 °F 39% 29.85 in 10.0 mi SSE 13.8 mph 17.3 mph N/A   Clear
8:52 PM 46.9 °F - 24.1 °F 41% 29.83 in 10.0 mi SSE 11.5 mph 18.4 mph N/A   Scattered Clouds
9:52 PM 46.0 °F 41.9 °F 24.1 °F 42% 29.81 in 10.0 mi South 8.1 mph - N/A   Overcast
10:52 PM 45.0 °F - 25.0 °F 46% 29.79 in 10.0 mi Calm Calm - N/A   Overcast
11:52 PM 42.1 °F 37.7 °F 32.0 °F 67% 29.77 in 10.0 mi SSE 6.9 mph - N/A   Overcast